Time,TemperatureF,DewpointF,PressureIn,WindDirection,WindDirectionDegrees,WindSpeedMPH,WindSpeedGustMPH,Humidity,HourlyPrecipIn,Conditions,Clouds,dailyrainin,SoftwareType,DateUTC
2014-11-26 00:10:00,29.7,26.0,30.18,NE,53,3.0,4.0,87,0.00,,,0.00,weatherlink.com 1.10,2014-11-26 05:10:00,
2014-11-26 00:25:00,29.6,26.0,30.18,NNE,21,2.0,4.0,87,0.00,,,0.00,weatherlink.com 1.10,2014-11-26 05:25:00,
2014-11-26 00:40:00,29.5,26.0,30.16,NE,46,3.0,3.0,88,0.00,,,0.00,weatherlink.com 1.10,2014-11-26 05:40:00,
2014-11-26 00:56:00,29.4,26.0,30.16,North,5,3.0,5.0,88,0.00,,,0.00,weatherlink.com 1.10,2014-11-26 05:56:00,
2014-11-26 01:11:00,29.2,26.0,30.16,NE,35,1.0,3.0,88,0.00,,,0.00,weatherlink.com 1.10,2014-11-26 06:11:00,
2014-11-26 01:26:00,28.9,26.0,30.16,NE,42,2.0,3.0,88,0.00,,,0.00,weatherlink.com 1.10,2014-11-26 06:26:00,
2014-11-26 01:41:00,28.2,25.0,30.16,NE,50,2.0,3.0,89,0.00,,,0.00,weatherlink.com 1.10,2014-11-26 06:41:00,
2014-11-26 01:56:00,27.4,25.0,30.17,NE,50,0.0,2.0,90,0.00,,,0.00,weatherlink.com 1.10,2014-11-26 06:56:00,
2014-11-26 02:11:00,26.6,24.0,30.18,NE,48,1.0,2.0,91,0.00,,,0.00,weatherlink.com 1.10,2014-11-26 07:11:00,
2014-11-26 02:26:00,26.4,24.0,30.18,NE,48,1.0,2.0,92,0.00,,,0.00,weatherlink.com 1.10,2014-11-26 07:26:00,
2014-11-26 02:41:00,26.6,25.0,30.16,NE,49,3.0,3.0,92,0.00,,,0.00,weatherlink.com 1.10,2014-11-26 07:41:00,
2014-11-26 02:56:00,27.1,25.0,30.15,NNE,16,2.0,4.0,91,0.00,,,0.00,weatherlink.com 1.10,2014-11-26 07:56:00,
2014-11-26 03:11:00,26.8,25.0,30.15,NNE,26,2.0,4.0,91,0.00,,,0.00,weatherlink.com 1.10,2014-11-26 08:11:00,
2014-11-26 03:26:00,26.5,24.0,30.14,NE,45,1.0,4.0,91,0.00,,,0.00,weatherlink.com 1.10,2014-11-26 08:26:00,
2014-11-26 03:41:00,26.6,24.0,30.15,NE,41,3.0,6.0,91,0.00,,,0.00,weatherlink.com 1.10,2014-11-26 08:41:00,
2014-11-26 03:56:00,27.5,25.0,30.15,NE,42,4.0,12.0,91,0.00,,,0.00,weatherlink.com 1.10,2014-11-26 08:56:00,
2014-11-26 04:11:00,27.8,25.0,30.15,NE,54,4.0,8.0,90,0.00,,,0.00,weatherlink.com 1.10,2014-11-26 09:11:00,
2014-11-26 04:26:00,27.9,25.0,30.13,NE,37,4.0,10.0,90,0.00,,,0.00,weatherlink.com 1.10,2014-11-26 09:26:00,
2014-11-26 04:41:00,28.0,25.0,30.12,NNE,31,3.0,7.0,89,0.00,,,0.00,weatherlink.com 1.10,2014-11-26 09:41:00,
2014-11-26 04:56:00,28.1,25.0,30.11,NNE,31,4.0,12.0,88,0.00,,,0.00,weatherlink.com 1.10,2014-11-26 09:56:00,
2014-11-26 05:11:00,28.1,25.0,30.12,NE,41,2.0,9.0,88,0.00,,,0.00,weatherlink.com 1.10,2014-11-26 10:11:00,
2014-11-26 05:26:00,27.6,25.0,30.12,NNE,26,2.0,5.0,88,0.00,,,0.00,weatherlink.com 1.10,2014-11-26 10:26:00,
2014-11-26 05:41:00,27.5,25.0,30.12,NNE,17,2.0,8.0,89,0.00,,,0.00,weatherlink.com 1.10,2014-11-26 10:41:00,
2014-11-26 05:56:00,28.0,25.0,30.13,NNE,17,4.0,8.0,88,0.00,,,0.00,weatherlink.com 1.10,2014-11-26 10:56:00,
2014-11-26 06:11:00,28.3,25.0,30.13,North,5,2.0,8.0,88,0.00,,,0.00,weatherlink.com 1.10,2014-11-26 11:11:00,
2014-11-26 06:26:00,28.0,25.0,30.12,NNW,341,4.0,10.0,88,0.00,,,0.00,weatherlink.com 1.10,2014-11-26 11:26:00,
2014-11-26 06:41:00,28.1,25.0,30.12,NNE,22,4.0,9.0,89,0.00,,,0.00,weatherlink.com 1.10,2014-11-26 11:41:00,
2014-11-26 06:56:00,28.3,26.0,30.11,NNE,14,1.0,8.0,89,0.00,,,0.00,weatherlink.com 1.10,2014-11-26 11:56:00,
2014-11-26 07:11:00,28.4,26.0,30.12,North,10,5.0,6.0,89,0.00,,,0.00,weatherlink.com 1.10,2014-11-26 12:11:00,
2014-11-26 07:26:00,28.7,26.0,30.13,NNE,29,3.0,6.0,88,0.00,,,0.00,weatherlink.com 1.10,2014-11-26 12:26:00,
2014-11-26 07:41:00,28.9,26.0,30.13,NNE,14,4.0,7.0,88,0.00,,,0.00,weatherlink.com 1.10,2014-11-26 12:41:00,
2014-11-26 07:56:00,29.1,26.0,30.14,NNE,14,2.0,6.0,88,0.00,,,0.00,weatherlink.com 1.10,2014-11-26 12:56:00,
2014-11-26 08:11:00,29.3,26.0,30.14,NNE,32,1.0,6.0,88,0.00,,,0.00,weatherlink.com 1.10,2014-11-26 13:11:00,
2014-11-26 08:26:00,29.5,26.0,30.14,North,10,2.0,6.0,88,0.00,,,0.00,weatherlink.com 1.10,2014-11-26 13:26:00,
2014-11-26 08:41:00,29.7,26.0,30.14,NNE,21,4.0,9.0,87,0.00,,,0.00,weatherlink.com 1.10,2014-11-26 13:41:00,
2014-11-26 08:56:00,29.9,26.0,30.14,NNW,334,6.0,9.0,86,0.00,,,0.00,weatherlink.com 1.10,2014-11-26 13:56:00,
2014-11-26 09:12:00,30.0,26.0,30.15,North,5,5.0,10.0,86,0.00,,,0.00,weatherlink.com 1.10,2014-11-26 14:12:00,
2014-11-26 09:27:00,30.1,26.0,30.15,North,11,2.0,6.0,86,0.00,,,0.00,weatherlink.com 1.10,2014-11-26 14:27:00,
2014-11-26 09:42:00,30.4,27.0,30.15,NNE,13,4.0,5.0,87,0.00,,,0.00,weatherlink.com 1.10,2014-11-26 14:42:00,
2014-11-26 09:57:00,30.5,27.0,30.15,NNE,16,3.0,6.0,86,0.00,,,0.00,weatherlink.com 1.10,2014-11-26 14:57:00,
2014-11-26 10:12:00,30.8,27.0,30.15,North,11,5.0,6.0,85,0.00,,,0.00,weatherlink.com 1.10,2014-11-26 15:12:00,
2014-11-26 10:27:00,31.0,27.0,30.15,North,11,5.0,5.0,86,0.00,,,0.00,weatherlink.com 1.10,2014-11-26 15:27:00,
2014-11-26 10:42:00,31.3,27.0,30.15,North,355,6.0,6.0,85,0.00,,,0.00,weatherlink.com 1.10,2014-11-26 15:42:00,
2014-11-26 10:57:00,31.5,27.0,30.14,North,5,5.0,8.0,84,0.00,,,0.00,weatherlink.com 1.10,2014-11-26 15:57:00,
2014-11-26 11:12:00,31.8,28.0,30.13,NNW,327,3.0,8.0,84,0.00,,,0.00,weatherlink.com 1.10,2014-11-26 16:12:00,
2014-11-26 11:27:00,32.2,28.0,30.13,North,9,5.0,6.0,83,0.00,,,0.00,weatherlink.com 1.10,2014-11-26 16:27:00,